Flag for Germany Weather past 2 weeks in Itzehoe, Schleswig-Holstein, Germany

Now
50 °F

Cool.


Feels Like: 48 °F
Forecast: 46 / 56 °F
Wind: 5 mph from Southwest

Location: Hohn

Current Time: May 25, 2015 at 6:00:27 AM

Latest Report: May 25, 2015 at 4:20 AM


Visibility: 2 mi

Pressure: 29.92 "Hg

Humidity: 88%

Dew point: 46 °F

Location of ItzehoeLocation

Historic Weather in Itzehoe — Graph

°F

Itzehoe temperature yesterday

Maximum temperature yesterday: 61 °F (at 5:20 PM)
Minimum temperature yesterday: 36 °F (at 5:20 AM)
Average temperature yesterday: 49 °F

Past Weeks' High & Low Weather Summary

 TemperatureHumidityPressure
High73 °F (May 11, 5:20 PM)100% (May 12, 3:20 AM)30.33 "Hg (May 12, 3:20 AM)
Low36 °F (May 24, 5:20 AM)41% (May 11, 5:20 PM)29.53 "Hg (May 18, 11:20 PM)
Average51 °F76%30.01 "Hg
* Reported May 10 4:20 AM — May 25 4:20 AM, Itzehoe, Weather by CustomWeather, © 2015

Note: Actual official high and low records may vary slightly from our data, if they occured in-between our weather recording intervals... More about our weather records

Advertising

Itzehoe weather history for previous 24 hours

 ConditionsComfort  
Time TempWeatherWind HumidityBarometerVisibility
4:20 AM
Mon, May 25
50 °FCool.5 mph88%29.92 "Hg2 mi
3:20 AM48 °FCool.3 mph87%29.95 "Hg2 mi
2:20 AM45 °FQuite cool.1 mph93%29.95 "Hg2 mi
1:20 AM43 °FQuite cool.2 mph93%29.98 "Hg2 mi
12:20 AM43 °FQuite cool.1 mph93%29.98 "Hg1 mi
11:20 PM
Sun, May 24
43 °FQuite cool.1 mph93%29.98 "Hg1 mi
10:20 PM46 °FCool.1 mph87%30.01 "Hg2 mi
9:20 PM52 °FCool.6 mph77%30.01 "Hg2 mi
8:20 PM57 °FCool.6 mph63%30.01 "Hg3 mi
7:20 PM59 °FRefreshingly cool.8 mph59%30.04 "Hg3 mi
6:20 PM61 °FRefreshingly cool.8 mph52%30.04 "Hg3 mi
5:20 PM61 °FRefreshingly cool.8 mph52%30.04 "Hg3 mi
4:20 PM59 °FRefreshingly cool.8 mph55%30.07 "Hg3 mi
3:20 PM59 °FRefreshingly cool.8 mph55%30.07 "Hg3 mi
2:20 PM59 °FRefreshingly cool.6 mph55%30.09 "Hg3 mi
1:20 PM55 °FRefreshingly cool.8 mph59%30.09 "Hg3 mi
12:20 PM54 °FCool.7 mph63%30.12 "Hg3 mi
11:20 AM52 °FCool.9 mph67%30.15 "Hg3 mi
10:20 AM50 °FCool.7 mph67%30.15 "Hg2 mi
9:20 AM48 °FCool.7 mph71%30.15 "Hg3 mi
8:20 AM48 °FCool.5 mph71%30.15 "Hg2 mi
7:20 AM46 °FCool.5 mph82%30.15 "Hg2 mi
6:20 AM41 °FQuite cool.1 mph93%30.15 "Hg2 mi
Weather by CustomWeather, © 2015

See weather overviewHow to use our weather pages